ワイスマン-スキッフ彗星

114P/Wiseman-Skiff (2000)

English version
Home page
Updated on September 23, 2006

---------------------------------------------------------------------

・ プロフィール

・ 写真集

・ 軌道要素

   The following improved orbital elements by Kenji Muraoka,
  are from 238 observations 1986 to 2000, including 9 Planets,
  Moon and 5 minor planets perturbations and non-gravitational
  effect of style II.  The mean residual is +/- 0.69 arc seconds.

      Epoch  =  2000 Jan  = 2451560.5
          T  =  2000 Jan. 11.73069       +/- 0.00047 (m.e.) TT
       Peri. =  172.81818                +/- 0.00031
       Node  =  271.06994                +/- 0.00003   (2000.0)
       Incl. =   18.29087                +/- 0.00002
          q  =    1.5694441              +/- 0.0000012 AU
          e  =    0.5564860              +/- 0.0000007
          a  =    3.5386578              +/- 0.0000018 AU
          n  =    0.14806289             +/- 0.00000011
          P  =    6.657                  +/- 0.0000050  years
         A1  =   +0.641                  +/- 0.041
         A2  =   +0.00944                +/- 0.00116

・ 星図

・ 光度変化

        m1 = 9.0 + 5 logΔ + 27.0 log r(t - 20)

---------------------------------------------------------------------

軌道要素は村岡健治氏の計算によるものです。
星図は StellaNavigator Ver.2.0 for Windows (アストロアーツ 編著 / アスキー出版局刊) で作成したものです。
光度グラフはComet for Windowsで作成したものです。

---------------------------------------------------------------------

Copyright(C) Seiichi Yoshida (comet@aerith.net). All rights reserved.